W-CUBE (48965 NORAD) Tracking and Keplerian Element Data

This shows tracking and keplerian element data for the satellite.

Feedback or suggestion? Click here.




ElementValue
Catalog48965
NameW-CUBE
Epoch Orbit1387
Epoch Day268.66912528
Epoch Year2021
RAAN36.0887
Inclination97.523
Eccentricity0.0011779
Argument of Perigee284.4197
Mean Anonmoly75.5726
Mean Motion15.1217124
Decay Rate1.438E-05
L11 48965U 21059CQ 21268.66912528 .00001438 00000-0 87026-4 0 9990
L22 48965 97.5230 36.0887 0011779 284.4197 75.5726 15.12171240 13877

Live tracking and technical data element details for W-CUBE (NORAD 48965). W-CUBE can be tracked NOW for your location showing map with azimuth and elevation plus other details from your city location.

Track the satellite on the map from your city or location and see movement details for azimuth, elevation, latitude, longitude, range, height, and movement on the map or in text.







IsCatalogInMostPopularTable: catalog: 48965, numindb: 13
Update: records affected: 1



GetName: 48965 W-CUBE

Hit Count: updated at: Sun, 26 Sep 2021 14:59:54 GMT